Location: Strawberry
(33.0916°N, 80.0306°W)
Time: 15:51:21
(UTC+00:00)

N. Korean satellite - Visible Passes

Search period start: 08 December 2022 00:00
Search period end: 18 December 2022 00:00
Orbit: 420 x 452 km, 97.3° (Epoch: 08 December)

Date Brightness Start Highest point End Pass type
(mag) Time Alt. Az. Time Alt. Az. Time Alt. Az.
08 Dec 7.6 10:15:40 10° NNE 10:18:52 41° E 10:22:01 10° S visible
09 Dec 9.9 09:38:34 10° ENE 09:39:38 11° E 09:40:42 10° ESE visible
09 Dec 7.3 11:09:19 10° NNW 11:12:09 26° WNW 11:14:56 10° SW visible
10 Dec 6.5 10:29:47 10° NNE 10:33:08 73° E 10:36:26 10° S visible
11 Dec 9.2 09:51:32 10° NE 09:53:52 18° E 09:56:10 10° SE visible
11 Dec 7.9 11:24:00 10° NNW 11:26:11 17° WNW 11:28:21 10° WSW visible
12 Dec 6.2 10:43:52 10° N 10:47:10 64° WNW 10:50:25 10° SSW visible
12 Dec 9.5 22:41:49 10° SW 22:44:17 19° W 22:46:45 10° NW visible
13 Dec 8.4 10:04:58 10° NE 10:07:53 27° E 10:10:44 10° SSE visible
13 Dec 8.4 11:39:13 10° NW 11:40:01 11° WNW 11:40:47 10° W visible
14 Dec 6.8 10:58:17 13° N 11:00:58 37° WNW 11:04:01 10° SW visible
14 Dec 9.9 22:56:44 10° WSW 22:58:09 12° W 22:59:34 10° WNW visible
15 Dec 7.4 10:19:10 15° NNE 10:21:39 45° E 10:24:47 10° S visible
16 Dec 9.8 09:40:50 10° ENE 09:42:04 12° E 09:43:19 10° ESE visible
16 Dec 7.4 11:13:13 18° NW 11:14:31 24° WNW 11:17:12 10° SW visible
17 Dec 6.3 10:33:45 31° NNE 10:35:11 78° ESE 10:38:26 10° S visible
